User: anonymous   Login
Location: Unspecified
(0.0000°N, 0.0000°E)
Time: 05:45:23
(UTC+00:00)
Language:

STARLINK-34753 - Orbit

View from above orbital plane
View from above orbital plane
View from above satellite
View from above satellite

Ground track
Ground track

The orbit is defined by the following mean orbital elements,

1 64946U          26145.35843681 +.00000000 +00000-0 +22560-3 0 00006
2 64946  97.4514   9.2919 0002465  87.2176 272.9333 15.05656845    03
Epoch (UTC): 25 May 2026 08:36:08
Eccentricity: 0.0002465
inclination: 97.4514°
perigee height: 548 km
apogee height: 551 km
right ascension of ascending node: 9.2919°
argument of perigee: 87.2176°
revolutions per day: 15.05656845
mean anomaly at epoch: 272.9333°

The dashed part of the orbit path shows where the satellite is in the earth's shadow,  

DLR